Regional Weather Roundup
Issued by NWS

Home | Current Version | Previous Version | Text Only | Print | Product List | Glossary Off
Versions: 1 2 3 4 5 6 7 8 9 10 11 12 13 14 15 16 17 18 19 20 21 22 23 24 25 26 27 28 29 30 31 32 33 34 35 36 37 38 39 40 41 42 43 44 45 46 47 48 49 50

000
ASUS43 KOAX 260010
RWRNE

WEATHER ROUNDUP FOR NEBRASKA
NATIONAL WEATHER SERVICE OMAHA NE
600 PM CST TUE NOV 25 2014

NOTES: SATELLITE DATA IS BEING USED TO AUGMENT CLOUD COVER ABOVE
       12000 FEET.
       "FAIR" INDICATES FEW OR NO CLOUDS BELOW 12,000 FEET WITH NO
       SIGNIFICANT WEATHER AND/OR OBSTRUCTIONS TO VISIBILITY.

  * THESE STATIONS DO NOT REPORT WEATHER SUCH AS RAIN...SNOW OR FOG.

NEZ001>004-019>022-054>056-260100-
NEBRASKA PANHANDLE

CITY           SKY/WX    TMP DP  RH WIND       PRES   REMARKS
SCOTTSBLUFF    LGT RAIN  34  50 100 W8        29.92R WCI  27
6HR MIN TEMP:  34; 6HR MAX TEMP:  49; 6HR PCP:  0.03;

ALLIANCE       CLOUDY    38  31  76 NW14      29.87R WCI  30
6HR MIN TEMP:  38; 6HR MAX TEMP:  47;

CHADRON        CLOUDY    48  31  51 W16       29.87R
6HR MIN TEMP:  40; 6HR MAX TEMP:  51;

KIMBALL        CLOUDY    36  28  73 N15       29.88R WCI  27
SIDNEY         CLOUDY    37  30  75 N22G30    29.90R WCI  26
6HR MIN TEMP:  37; 6HR MAX TEMP:  50;

$$

NEZ057>060-069>072-079>082-260100-
SOUTHWEST NEBRASKA

CITY           SKY/WX    TMP DP  RH WIND       PRES   REMARKS
NORTH PLATTE   CLOUDY    35  23  61 W3        29.83R
6HR MIN TEMP:  35; 6HR MAX TEMP:  45;

IMPERIAL       CLOUDY    46  27  47 NW24G33   29.86R
6HR MIN TEMP:  39; 6HR MAX TEMP:  50;

LEXINGTON      CLOUDY    41  23  49 SW5       29.83F
MCCOOK         CLOUDY    44  20  38 CALM      29.84S
6HR MIN TEMP:  43; 6HR MAX TEMP:  50;

OGALLALA       CLOUDY    46  28  50 NW14      29.86R
$$

NEZ005>010-023>029-035>040-094-260100-
NORTH CENTRAL NEBRASKA

CITY           SKY/WX    TMP DP  RH WIND       PRES   REMARKS
VALENTINE      CLOUDY    37  33  85 W13       29.81R WCI  29
6HR MIN TEMP:  37; 6HR MAX TEMP:  44; 6HR PCP: TRACE;

AINSWORTH      MOCLDY    38  30  71 NW20G26   29.79R WCI  28
BROKEN BOW     CLOUDY    41  27  57 W8        29.80F
6HR MIN TEMP:  40; 6HR MAX TEMP:  45;

O`NEILL        CLOUDY    41  28  59 S6        29.78F
ORD            MOCLDY    35  23  61 S7        29.80F WCI  29
6HR MIN TEMP:  35; 6HR MAX TEMP:  45;

THEDFORD       MOCLDY    38  29  71 W8        29.83R WCI  32
$$

NEZ041-046>049-061>064-073>077-083>087-260100-
SOUTH CENTRAL NEBRASKA

CITY           SKY/WX    TMP DP  RH WIND       PRES   REMARKS
GRAND ISLAND   CLOUDY    44  21  40 S10       29.85F
6HR MIN TEMP:  42; 6HR MAX TEMP:  47;

AURORA         CLOUDY    45  23  41 SW14G24   29.87F
HASTINGS       CLOUDY    45  19  35 SW10      29.86F
6HR MIN TEMP:  42; 6HR MAX TEMP:  46;

HEBRON         CLOUDY    46  18  32 SW12G18   29.93S
HOLDREGE       CLOUDY    45  24  43 W13       29.84S
KEARNEY *      CLOUDY    43  18  36 S7        29.85F
YORK           CLOUDY    45  25  45 SW13G29   29.89F
$$

NEZ011>018-030>034-042>045-260100-
NORTHEAST NEBRASKA

CITY           SKY/WX    TMP DP  RH WIND       PRES   REMARKS
NORFOLK        LGT RAIN  42  29  59 SW13G24   29.85F
6HR MIN TEMP:  41; 6HR MAX TEMP:  45; 6HR PCP: TRACE;

ALBION         DRIZZLE   41  28  58 SW9G18    29.84F
BLAIR          CLOUDY    40  27  58 SE10      29.93S WCI  34
COLUMBUS *     CLOUDY    45  25  45 SW13      29.90S
FREMONT        CLOUDY    40  27  59 SE7       29.92S
TEKAMAH        CLOUDY    38  24  57 SE14      29.93F WCI  30
6HR MIN TEMP:  38; 6HR MAX TEMP:  44;

WAYNE          CLOUDY    38  27  64 S12       29.87F WCI  31
$$

NEZ050>053-065>068-078-088>093-260100-
SOUTHEAST NEBRASKA

CITY           SKY/WX    TMP DP  RH WIND       PRES   REMARKS
LINCOLN        CLOUDY    42  25  50 S9        29.94S
6HR MIN TEMP:  41; 6HR MAX TEMP:  49;

OMAHA EPPLEY   CLOUDY    39  24  55 SE15      29.96F WCI  31
6HR MIN TEMP:  36; 6HR MAX TEMP:  43;

BEATRICE       CLOUDY    43  26  52 S10       29.95S
FALLS CITY     MOCLDY    36  23  59 SE10      30.01S WCI  28
6HR MIN TEMP:  35; 6HR MAX TEMP:  46;

NEBRASKA CITY  CLOUDY    39  22  51 S10       29.97F WCI  32
PLATTSMOUTH    CLOUDY    39  24  56 SE9       29.95F WCI  32
$$

NEZ044-045-051>053-067-260100-
OMAHA AREA

CITY           SKY/WX    TMP DP  RH WIND       PRES   REMARKS
OMAHA EPPLEY   CLOUDY    39  24  55 SE15      29.96F WCI  31
6HR MIN TEMP:  36; 6HR MAX TEMP:  43;

BLAIR          CLOUDY    40  27  58 SE10      29.93S WCI  34
FREMONT        CLOUDY    40  27  59 SE7       29.92S
MILLARD        CLOUDY    39  27  61 SE7       29.95S WCI  34
OFFUTT AFB     CLOUDY    38  24  58 SE10      29.95F WCI  31
PLATTSMOUTH    CLOUDY    39  24  56 SE9       29.95F WCI  32
WAHOO          CLOUDY    40  24  54 S8        29.92S WCI  34
$$



USA.gov is the U.S. government's official web portal to all federal, state and local government web resources and services.